Weather WX

World > North America > United States > Mississippi

Fairlane, Mississippi Regional Weather

Lat: 33.52N, Lon: 88.42W
Wx Zone: MSZ031
Warning FLW WEATHER ALERT - (More Info. Click Here) Warning
Feedback

Fairlane, MS Regional Weather

Expires:201906200300;;761125
ASUS44 KJAN 200210
RWRMS 

MISSISSIPPI HOURLY WEATHER ROUNDUP
NATIONAL WEATHER SERVICE JACKSON MS
900 PM CDT WED JUN 19 2019

NOTE: "FAIR: INDICATES FEW OR NO CLOUDS BELOW 12,000 FEET WITH NO
SIGNIFICANT WEATHER AND/OR OBSTRUCTIONS TO VISIBILITY.


MSZ003>006-009-014>017-022>024-029>033-037>039-200300-
NORTHEAST MISSISSIPPI
  
CITY           SKY/WX    TMP DP  RH WIND       PRES   REMARKS
ABERDEEN       FAIR      79  72  78 S7        29.75S                  
COLUMBUS AFB   FAIR      81  73  76 S7        29.74R                  
CORINTH        FAIR      81  72  74 S7        29.71S                  
GOLDN TRIANGLE FAIR      80  74  81 S9        29.76R                  
STARKVILLE     FAIR      77  73  88 CALM      29.78R                  
TUPELO         FAIR      83  72  69 S6        29.73R                  
$$


SKY/WX - Weather  TMP - Temperature  DP - Dew Point  RH - Relative Humidity
WIND - Wind Direction/Speed PRES - Barometric Pressure VSB - Visibility
WCI - Wind Chill Index E13G22 Wind - East Wind 13 mph/Gusts of 22 mph